Voltar ao catálogo

STARLINK-37592

AtivoComunicaçõesSSO
NORAD 69025·PAYLOAD·🇺🇸 United States

Lançado May 6, 2026 de Vandenberg Space Force Base

Loading…

Próximas Passagens (próximas 24 horas)

TLE

AtualizadoSource: CelesTrak SupGP

Época: Sep 15, 2026, 04:13 UTC

1 69025C 26101A   26258.17618056 -.00040936  00000+0 -12703-2 0  2585
2 69025  97.2851 111.6788 0002003  93.7248 106.1063 15.33468954    12

Acompanhe STARLINK-37592 em tempo real com AllMySat

Download on the App Store